Location: Newark
(21.8258°S, 114.1586°E)
Time: 11:19:35
(UTC+00:00)

Hubble Space Telescope - Pass Details

Date: 16 December 2019
Orbit: 536 x 540 km, 28.5° (Epoch: 17 January)

Event Time Altitude Azimuth Distance (km) Brightness Sun altitude
Rises 12:07:56 0° 249° (WSW) 2,686 6.1 -14.1°
Reaches altitude 10° 12:10:20 10° 240° (WSW) 1,794 4.9 -14.6°
Maximum altitude 12:14:11 36° 172° (S) 855 2.0 -15.3°
Enters shadow 12:17:08 15° 110° (ESE) 1,478 2.7 -15.9°
